Rugby, ND

2:23 AM CST on December 13, 2019 (GMT -0600)
Rugby Municipal

Weather History for KRUG - October, 2019

Change the Weather History Date:

Wednesday, October 23, 2019

  Actual Average Record
Temperature  
Mean Temperature 30 °F -  
Max Temperature 41 °F 53 °F 78 °F (1963)
Min Temperature 19 °F 30 °F 14 °F (1976)
Degree Days  
Heating Degree Days 35    
Moisture  
Dew Point 22 °F    
Average Humidity 71    
Maximum Humidity 100    
Minimum Humidity 45    
Precipitation  
Precipitation 0.00 in - - ()
Sea Level Pressure  
Sea Level Pressure 30.07 in    
Wind  
Wind Speed 10 mph (NW)    
Max Wind Speed 22 mph    
Max Gust Speed 31 mph    
Visibility 10 miles    
Events      
Averages and records for this station are not official NWS values.
T = Trace of Precipitation, MM = Missing Value Source: NWS Daily Summary

Daily Weather History Graph

Daily Weather History Graph

Search for Another Location

Airport or City:

Astronomy

Oct. 23, 2019 Rise Set
Actual Time 8:11 AM CDT 6:36 PM CDT
Civil Twilight 7:39 AM CDT 7:08 PM CDT
Nautical Twilight 7:03 AM CDT 7:44 PM CDT
Astronomical Twilight 6:26 AM CDT 8:20 PM CDT
Moon 1:57 AM CDT (10/23) 4:58 PM CDT (10/23)
Length of Visible Light 11h 28m
Length of Day
10h 24m
Waning Crescent, 26% of the Moon is Illuminated
Oct 23
Waning Crescent
Oct 27
New
Nov 4
First Quarter
Nov 12
Full
Nov 19
Last Quarter

Hourly Weather History & Observations

Time (CDT) Temp. Windchill Dew Point Humidity Pressure Visibility Wind Dir Wind Speed Gust Speed Precip Events Conditions
12:55 AM 24.8 °F 19.1 °F 23.0 °F 93% 29.80 in 10.0 mi NNW 4.6 mph - N/A   Unknown
1:55 AM 24.8 °F 16.9 °F 23.0 °F 93% 29.81 in 10.0 mi North 6.9 mph - N/A   Clear
2:35 AM 21.2 °F 14.9 °F 19.4 °F 93% 29.82 in 10.0 mi NW 4.6 mph - N/A   Clear
2:55 AM 21.2 °F 14.9 °F 19.4 °F 93% 29.83 in 10.0 mi NW 4.6 mph - N/A   Clear
3:15 AM 21.2 °F 16.4 °F 19.4 °F 93% 29.84 in 10.0 mi WNW 3.5 mph - N/A   Clear
3:35 AM 19.4 °F 12.8 °F 19.4 °F 100% 29.85 in 10.0 mi WNW 4.6 mph - N/A   Clear
8:35 AM 21.2 °F 12.6 °F 21.2 °F 100% 29.96 in 10.0 mi NW 6.9 mph - N/A   Clear
8:55 AM 23.0 °F 14.7 °F 23.0 °F 100% 29.97 in 10.0 mi NW 6.9 mph - N/A   Clear
9:15 AM 24.8 °F 15.3 °F 24.8 °F 100% 29.97 in 10.0 mi NW 9.2 mph - N/A   Clear
9:35 AM 26.6 °F 16.8 °F 24.8 °F 93% 29.98 in 10.0 mi NW 10.4 mph - N/A   Clear
9:55 AM 28.4 °F 18.5 °F 26.6 °F 93% 29.99 in 10.0 mi NW 11.5 mph - N/A   Clear
10:15 AM 30.2 °F 19.8 °F 26.6 °F 86% 30.00 in 10.0 mi NW 13.8 mph - N/A   Clear
10:35 AM 30.2 °F 18.9 °F 26.6 °F 86% 30.01 in 10.0 mi NNW 16.1 mph - N/A   Clear
11:35 AM 33.8 °F 22.5 °F 24.8 °F 70% 30.03 in 10.0 mi North 19.6 mph - N/A   Clear
11:55 AM 35.6 °F 25.2 °F 23.0 °F 60% 30.04 in 10.0 mi NNW 18.4 mph - N/A   Scattered Clouds
12:15 PM 35.6 °F 25.5 °F 21.2 °F 56% 30.05 in 10.0 mi North 17.3 mph 24.2 mph N/A   Partly Cloudy
12:35 PM 37.4 °F 26.6 °F 21.2 °F 52% 30.05 in 10.0 mi North 21.9 mph 31.1 mph N/A   Clear
12:55 PM 37.4 °F 26.9 °F 21.2 °F 52% 30.06 in 10.0 mi North 20.7 mph 27.6 mph N/A   Clear
1:15 PM 37.4 °F 27.8 °F 19.4 °F 48% 30.06 in 10.0 mi North 17.3 mph 24.2 mph N/A   Partly Cloudy
1:35 PM 39.2 °F 29.8 °F 21.2 °F 49% 30.06 in 10.0 mi North 18.4 mph 24.2 mph N/A   Partly Cloudy
1:55 PM 37.4 °F 27.5 °F 19.4 °F 48% 30.06 in 10.0 mi NNW 18.4 mph 27.6 mph N/A   Partly Cloudy
2:15 PM 39.2 °F 30.2 °F 21.2 °F 49% 30.06 in 10.0 mi NNW 17.3 mph 26.5 mph N/A   Partly Cloudy
2:35 PM 39.2 °F 29.6 °F 19.4 °F 45% 30.06 in 10.0 mi NNW 19.6 mph 27.6 mph N/A   Scattered Clouds
2:55 PM 39.2 °F 30.2 °F 21.2 °F 49% 30.06 in 10.0 mi NNW 17.3 mph - N/A   Scattered Clouds
3:15 PM 41.0 °F 32.8 °F 21.2 °F 45% 30.07 in 10.0 mi NNW 16.1 mph 24.2 mph N/A   Mostly Cloudy
3:35 PM 41.0 °F 32.2 °F 21.2 °F 45% 30.07 in 10.0 mi NW 18.4 mph 26.5 mph N/A   Mostly Cloudy
3:55 PM 41.0 °F 31.4 °F 21.2 °F 45% 30.07 in 10.0 mi NW 21.9 mph - N/A   Overcast
4:15 PM 39.2 °F 30.2 °F 21.2 °F 49% 30.08 in 10.0 mi NW 17.3 mph - N/A   Mostly Cloudy
4:35 PM 39.2 °F 31.2 °F 23.0 °F 52% 30.09 in 10.0 mi NW 13.8 mph 20.7 mph N/A   Mostly Cloudy
4:55 PM 39.2 °F 30.5 °F 23.0 °F 52% 30.10 in 10.0 mi NW 16.1 mph - N/A   Overcast
5:15 PM 39.2 °F 31.6 °F 23.0 °F 52% 30.10 in 10.0 mi NW 12.7 mph - N/A   Overcast
5:35 PM 39.2 °F 32.0 °F 23.0 °F 52% 30.11 in 10.0 mi NW 11.5 mph - N/A   Overcast
5:55 PM 39.2 °F 33.0 °F 24.8 °F 56% 30.11 in 10.0 mi NW 9.2 mph - N/A   Overcast
6:15 PM 39.2 °F 33.0 °F 24.8 °F 56% 30.11 in 10.0 mi WNW 9.2 mph - N/A   Overcast
6:35 PM 37.4 °F 31.4 °F 26.6 °F 65% 30.12 in 7.0 mi WNW 8.1 mph - N/A   Overcast
6:55 PM 37.4 °F 29.8 °F 26.6 °F 65% 30.13 in 7.0 mi WNW 11.5 mph - N/A   Mostly Cloudy
7:15 PM 35.6 °F 26.6 °F 24.8 °F 65% 30.14 in 10.0 mi NW 13.8 mph 20.7 mph N/A   Scattered Clouds
7:35 PM 33.8 °F 23.2 °F 23.0 °F 65% 30.15 in 10.0 mi NW 17.3 mph - N/A   Partly Cloudy
7:55 PM 33.8 °F 23.5 °F 23.0 °F 65% 30.16 in 10.0 mi NNW 16.1 mph - N/A   Clear
8:15 PM 33.8 °F 23.2 °F 23.0 °F 65% 30.17 in 10.0 mi NNW 17.3 mph - N/A   Clear
8:35 PM 32.0 °F - 23.0 °F 69% 30.18 in 10.0 mi North - - N/A   Clear
8:55 PM 32.0 °F 23.0 °F 23.0 °F 69% 30.18 in 10.0 mi NNW 11.5 mph - N/A   Clear
9:15 PM 30.2 °F 22.6 °F 23.0 °F 75% 30.19 in 10.0 mi NNW 8.1 mph - N/A   Clear
9:35 PM 28.4 °F 22.2 °F 23.0 °F 80% 30.19 in 10.0 mi NW 5.8 mph - N/A   Clear
9:55 PM 26.6 °F 21.2 °F 21.2 °F 80% 30.20 in 10.0 mi WNW 4.6 mph - N/A   Clear
10:15 PM 24.8 °F 19.1 °F 21.2 °F 86% 30.20 in 10.0 mi NW 4.6 mph - N/A   Clear
10:35 PM 26.6 °F 21.2 °F 23.0 °F 86% 30.21 in 10.0 mi NW 4.6 mph - N/A   Clear
10:55 PM 24.8 °F 19.1 °F 21.2 °F 86% 30.21 in 10.0 mi WNW 4.6 mph - N/A   Clear
11:15 PM 23.0 °F - 21.2 °F 93% 30.22 in 10.0 mi Calm Calm - N/A   Clear
11:35 PM 23.0 °F 15.8 °F 19.4 °F 86% 30.22 in 10.0 mi West 5.8 mph - N/A   Clear
11:55 PM 21.2 °F 11.7 °F 19.4 °F 93% 30.23 in 10.0 mi West 8.1 mph - N/A   Clear